Tracking 18032 objects as of 26-March-2017
HD Live streaming from Space Station
objects crossing your sky now

INTELSAT 501

Track INTELSAT 501 now!
INTELSAT 501 is classified as:


NORAD ID: 12474
Int'l Code: 1981-050A
Perigee: 36,178.6 km
Apogee: 36,212.8 km
Inclination: 15.1 °
Period: 1,456.7 minutes
Semi major axis: 42566 km
RCS: 3.981 m2 (large)
Launch date: May 23, 1981
Source: International Telecommunications Satellite Organization (ITSO)
Launch site: AIR FORCE EASTERN TEST RANGE (AFETR)
Your satellite tracking list
Your tracking list is empty





NASA's NSSDC Master Catalog

Two Line Element Set (TLE):
1 12474U 81050A   17084.89264566 -.00000134 +00000-0 +00000-0 0  9997
2 12474 015.1080 353.2352 0004017 248.8136 277.3605 00.98854773104356
Source of the keplerian elements: AFSPC